Location: Castelldefells
(41.2777°N, 1.9688°E)
Time: 14:33:16
(UTC+00:00)

Daily predictions for brighter satellites

Satellite Brightness Start Highest point End
(mag) Time Altitude Azimuth Time Altitude Azimuth Time Altitude Azimuth
NOSS 3-1 (A) 4.3 17:19:31 10° NNW 17:26:56 54° NE 17:35:24 10° SE
FengYun 1-2 T 4.3 17:21:43 10° SSE 17:27:17 63° ENE 17:32:52 10° N
SMAP 3.3 17:24:42 10° S 17:29:21 77° WSW 17:34:02 10° NNW
Cosmos 1655 Rocket 4.1 17:23:01 10° N 17:29:23 63° E 17:35:42 10° SSE
Milstar 3 4.5 17:25:11 10° SSW 17:29:37 18° SSE 17:34:01 10° ESE
ERBS 3.6 17:30:25 10° WSW 17:33:33 37° NW 17:36:42 10° NNE
ATLAS 5 CENTAUR R/B 2.9 17:30:58 10° WSW 17:34:43 36° NW 17:38:54 10° NNE
Lacrosse 5 3.0 17:34:07 10° WSW 17:38:54 41° NW 17:43:41 10° NE
COSMO-SKYMED 1 2.9 17:35:35 10° NNE 17:39:47 46° E 17:43:57 10° S
NOSS 2-1 (C) 4.3 17:36:38 10° WSW 17:39:48 38° NW 17:43:04 10° NNE
ATLAS CENTAUR R/B 4.3 17:39:21 10° WNW 17:41:59 18° WSW 17:44:40 10° SSW
USA 276 2.9 17:39:30 10° NW 17:42:31 37° NNE 17:45:14 12° E
Cosmos 676 Rocket 4.1 17:37:59 10° NNW 17:43:11 81° WSW 17:48:22 10° SSE
H-2A R/B 3.4 17:39:38 10° ESE 17:43:24 20° ENE 17:47:12 10° NNE
X-37B 3.9 17:42:45 10° SW 17:43:28 11° SW 17:44:11 10° SSW
NOSS 2-1 (D) 4.5 17:41:57 10° WSW 17:45:02 33° NW 17:48:13 10° NNE
USA 215 4.4 17:40:26 10° ENE 17:45:48 28° NNE 17:51:10 10° NW
Okean-O 3.3 17:43:00 10° SE 17:46:56 33° ENE 17:50:54 10° N
GRACE-FO 1 4.4 17:43:46 10° N 17:47:22 74° E 17:50:58 10° S
GRACE-FO 2 4.4 17:44:08 10° N 17:47:45 75° E 17:51:21 10° S
SAR-Lupe-4 3.5 17:44:26 10° NNE 17:48:03 87° ESE 17:51:37 10° SSW
OAO 3 Rocket 4.4 17:44:51 10° SW 17:48:56 28° SSE 17:52:44 11° ESE
NOSS 3-1 (C) 4.3 17:41:40 10° NW 17:49:25 85° WSW 17:58:15 10° SSE
SeaSat 1 3.6 17:46:13 10° ESE 17:50:07 24° NE 17:54:03 10° N
Cosmos 1328 4.0 17:46:57 10° N 17:50:46 47° E 17:54:35 10° SSE
COSMOS 2487 3.4 17:48:52 10° N 17:51:48 25° ENE 17:54:42 10° ESE
Cosmos 1850 Rocket 4.3 17:47:43 10° N 17:52:50 48° ENE 17:57:57 10° SE
NOAA 11 4.3 17:49:45 10° SSE 17:55:13 85° WSW 18:00:42 10° NNW
Cosmos 1452 Rocket 3.5 17:51:36 10° SSW 17:56:51 90° ESE 18:02:09 10° NNE
Cosmos 1300 3.6 17:54:26 10° SSE 17:57:41 27° E 18:00:55 10° NNE
YAOGAN 1 3.2 17:54:19 10° SE 17:58:09 32° ENE 18:02:01 10° N
Cosmos 1825 Rocket 3.9 17:55:48 10° N 18:00:03 42° ENE 18:04:16 10° SSE
Cosmos 2098 Rocket 3.6 17:58:08 10° NNW 18:01:22 43° W 18:04:12 10° SSW
Cosmos 304 Rocket 4.5 17:57:17 10° SSW 18:01:58 57° WNW 18:06:42 10° NNE
Cosmos 1656 Rocket 4.5 17:59:15 10° SW 18:04:39 53° WNW 18:10:09 10° NNE
Cosmos 1400 Rocket 4.2 18:01:50 10° SE 18:04:48 19° E 18:05:29 18° ENE
CZ-2C R/B 3.6 18:00:39 10° SE 18:06:07 44° ENE 18:11:33 10° N
Cosmos 2369 Rocket 4.1 18:03:36 10° WSW 18:08:28 29° NW 18:13:24 10° N
Cosmos 2297 Rocket 3.7 18:07:26 10° N 18:11:03 17° NE 18:12:08 16° ENE
Cosmos 2266 Rocket 4.2 18:06:11 10° N 18:12:23 79° W 18:18:39 10° S
Cosmos 1689 Rocket 2.7 18:10:03 10° N 18:12:54 56° WNW 18:15:42 10° SSW
Cosmos 1758 Rocket 3.5 18:10:55 10° N 18:15:22 84° E 18:19:45 10° S
Cosmos 1726 Rocket 3.7 18:11:27 10° SSE 18:15:36 49° E 18:19:48 10° NNE
Helios 1A Rocket 2.9 18:18:33 10° SSE 18:22:42 86° WSW 18:26:51 10° NNW
CSL-04 Debris 4.4 18:18:09 10° SE 18:23:17 47° ENE 18:28:28 10° N
PSLV R/B 4.4 18:20:08 10° N 18:24:18 64° WNW 18:28:25 10° SSW
Meteor 2-21 4.5 18:21:08 10° N 18:27:22 85° W 18:33:28 10° S
Meteor 2-14 Rocket 4.4 18:21:12 10° N 18:27:24 89° W 18:33:31 10° S
SKYMED 2 4.5 18:23:38 10° N 18:27:51 51° WNW 18:32:03 10° SSW
Cosmos 1606 Rocket 3.5 18:24:00 10° S 18:28:19 89° ESE 18:32:42 10° N
Cosmos 2219 4.3 18:25:37 10° N 18:30:16 25° NE 18:30:55 24° ENE
SL-4 R/B 3.4 18:28:08 10° W 18:31:14 27° NNW 18:33:10 18° NNE
USA 116 4.4 18:27:12 10° NNE 18:32:23 68° ESE 18:37:41 10° S
Geosat 4.4 18:28:53 10° NNE 18:33:52 65° WNW 18:38:49 10° SW
Cosmos 44 3.6 18:31:42 10° S 18:35:44 36° ESE 18:35:52 36° ESE
Gbstr 26 Del rocket 4.3 18:29:34 10° NW 18:36:22 86° NE 18:41:38 23° SE
GEOS 3 Rocket 3.7 18:31:23 10° SSE 18:36:40 81° SW 18:42:04 10° NW
Cosmos 1340 4.5 18:40:21 10° N 18:41:40 19° NNE 18:41:40 19° NNE
S3M 4.3 18:38:34 10° SSE 18:44:06 38° E 18:49:41 10° NNE
Cosmos 2058 Rocket 3.0 18:41:26 10° S 18:45:50 67° E 18:50:17 10° NNE
Cosmos 1331 Rocket 4.0 18:44:14 10° SSW 18:49:24 81° WNW 18:54:35 10° NNE
Cosmos 2228 4.0 18:45:49 10° SSW 18:49:54 47° W 18:54:01 10° N
CRYOSAT 2 4.4 18:45:17 10° NNE 18:50:03 53° E 18:54:47 10° S
Cosmos 292 Rocket 3.6 18:50:37 10° SSW 18:55:23 86° ESE 18:59:05 17° NNE
Cosmos 1953 Rocket 3.8 18:52:09 10° NNW 18:56:30 69° W 19:00:53 10° S
Cosmos 1417 Rocket 4.4 18:51:57 10° S 18:58:02 63° E 19:04:14 10° NNE
Hubble Space Telescope 3.2 18:57:49 10° SSW 18:59:30 12° S 18:59:52 12° S
CZ-4 R/B 2.7 18:56:31 10° SSW 19:00:15 39° W 19:03:56 10° NNW
MOS 1 Rocket 3.2 18:56:16 10° N 19:00:48 82° WNW 19:05:35 10° SSW
Aureole 3 Rocket 3.0 19:00:26 10° SSW 19:04:10 58° NNW 19:07:45 10° N
Cosmos 2227 Rocket 3.1 19:09:14 10° N 19:13:11 34° NNE 19:13:11 34° NNE
Cosmos 1302 Rocket 3.9 19:09:22 10° SSW 19:14:36 87° ESE 19:16:04 49° NNE
Cosmos 1553 Rocket 4.0 19:11:13 10° S 19:17:36 82° W 19:23:59 10° N
H-2A R/B 2.6 19:17:05 10° S 19:22:18 58° W 19:27:41 10° NNW
Lacrosse 5 4.1 19:20:04 10° NW 19:23:06 16° NNW 19:24:49 14° N
ARGOS 3.3 19:23:47 40° S 19:25:44 74° WSW 19:31:11 10° NNW
SeaSat 1 3.2 19:25:37 35° SSW 19:27:20 50° WSW 19:32:09 10° NW
USA 215 3.2 19:27:26 61° ENE 19:28:02 64° NE 19:34:30 10° NW
ATLAS 2AS CENTAUR R/B 4.5 19:28:58 10° NNW 19:33:54 18° NNE 19:34:19 18° NNE
Cosmos 1745 Rocket 4.0 19:38:49 10° N 19:45:05 76° W 19:45:39 70° SW
Atlas Centaur 2 4.5 19:41:40 10° SSW 19:45:26 20° S 19:45:26 20° S
Cosmos 2297 Rocket 3.0 19:50:07 10° NNW 19:53:58 45° NNW 19:53:58 45° NNW
Milstar 3 4.2 20:05:58 10° WSW 20:09:50 28° SSW 20:09:50 28° SSW
Cosmos 2219 4.5 20:09:10 10° NNW 20:12:52 38° NW 20:12:52 38° NW
